• In Deutschland
  • Länderverzeichnis
  • Für 7 Tage
  • Wassertemperatur
  • Satellitenkarten
  • Wetterkarte
  • Widgets
  • user-avatar
    Anmelden

    Stündliche Wetter Aalborg

    Heute, 12 Dezember, Dienstag

    Zeit Temperatur Niederschläge Wind Luftdruck Luftfeuchtigkeit
    00:00 -1°C° 0,5 mm 9 m/S 741 mmHg 87%
    01:00 -1°C° 0,5 mm 9 m/S 741 mmHg 87%
    02:00 -1°C° 0,3 mm 9 m/S 741 mmHg 86%
    03:00 -2°C° 0,3 mm 10 m/S 741 mmHg 85%
    04:00 -2°C° 0,3 mm 10 m/S 741 mmHg 83%
    05:00 -3°C° 0,1 mm 10 m/S 742 mmHg 83%
    06:00 -3°C° 0,1 mm 9 m/S 742 mmHg 82%
    07:00 -3°C° 0,1 mm 9 m/S 742 mmHg 81%
    08:00 -3°C° 0 mm 9 m/S 743 mmHg 81%
    09:00 -2°C° 0 mm 8 m/S 744 mmHg 81%
    10:00 -2°C° 0 mm 8 m/S 744 mmHg 81%
    11:00 -2°C° 0 mm 8 m/S 745 mmHg 80%
    12:00 -2°C° 0 mm 7 m/S 746 mmHg 79%
    13:00 -2°C° 0 mm 7 m/S 746 mmHg 78%
    14:00 -2°C° 0 mm 6 m/S 747 mmHg 78%
    15:00 -2°C° 0 mm 5 m/S 747 mmHg 77%
    16:00 -2°C° 0 mm 5 m/S 747 mmHg 76%
    17:00 -1°C° 0,1 mm 5 m/S 748 mmHg 78%
    18:00 -1°C° 0,1 mm 5 m/S 748 mmHg 81%
    19:00 0°C° 0,1 mm 5 m/S 748 mmHg 83%
    20:00 -1°C° 0,3 mm 6 m/S 748 mmHg 84%
    21:00 +1°C° 0,3 mm 6 m/S 748 mmHg 84%
    22:00 0°C° 0,3 mm 7 m/S 748 mmHg 85%
    23:00 0°C° 0,2 mm 8 m/S 748 mmHg 83%

    Morgen, 13 Dezember, Mittwoch

    Zeit Temperatur Niederschläge Wind Luftdruck Luftfeuchtigkeit
    00:00 0°C° 0,2 mm 8 m/S 748 mmHg 82%
    01:00 +1°C° 0,2 mm 9 m/S 748 mmHg 80%
    02:00 0°C° 0,1 mm 8 m/S 748 mmHg 81%
    03:00 0°C° 0,1 mm 8 m/S 748 mmHg 81%
    04:00 0°C° 0,1 mm 8 m/S 748 mmHg 82%
    05:00 0°C° 0 mm 8 m/S 748 mmHg 83%
    06:00 0°C° 0 mm 8 m/S 747 mmHg 84%
    07:00 0°C° 0 mm 8 m/S 747 mmHg 85%
    08:00 0°C° 0,2 mm 9 m/S 746 mmHg 86%
    09:00 0°C° 0,2 mm 10 m/S 745 mmHg 87%
    10:00 -1°C° 0,2 mm 11 m/S 745 mmHg 88%
    11:00 0°C° 0,4 mm 12 m/S 744 mmHg 86%
    12:00 0°C° 0,4 mm 12 m/S 743 mmHg 85%
    13:00 0°C° 0,4 mm 12 m/S 742 mmHg 83%
    14:00 +1°C° 0,4 mm 11 m/S 741 mmHg 86%
    15:00 +1°C° 0,4 mm 10 m/S 741 mmHg 88%
    16:00 +1°C° 0,4 mm 8 m/S 740 mmHg 91%
    17:00 +2°C° 0,2 mm 7 m/S 740 mmHg 92%
    18:00 +2°C° 0,2 mm 6 m/S 739 mmHg 92%
    19:00 +1°C° 0,2 mm 6 m/S 739 mmHg 93%
    20:00 +1°C° 0 mm 6 m/S 738 mmHg 92%
    21:00 +1°C° 0 mm 6 m/S 737 mmHg 92%
    22:00 +1°C° 0 mm 6 m/S 737 mmHg 91%
    23:00 +1°C° 0 mm 6 m/S 736 mmHg 92%

    übermorgen, 14 Dezember, Donnerstag

    Zeit Temperatur Niederschläge Wind Luftdruck Luftfeuchtigkeit
    00:00 0°C° 0 mm 7 m/S 735 mmHg 92%
    01:00 0°C° 0 mm 7 m/S 734 mmHg 93%
    02:00 0°C° 1,2 mm 7 m/S 733 mmHg 92%
    03:00 0°C° 1,2 mm 7 m/S 732 mmHg 92%
    04:00 0°C° 1,2 mm 7 m/S 731 mmHg 92%
    05:00 +1°C° 1,6 mm 8 m/S 730 mmHg 89%
    06:00 +1°C° 1,6 mm 8 m/S 730 mmHg 86%
    07:00 +1°C° 1,6 mm 9 m/S 729 mmHg 83%
    08:00 +1°C° 1,3 mm 10 m/S 729 mmHg 81%
    09:00 +1°C° 1,3 mm 10 m/S 729 mmHg 79%
    10:00 +1°C° 1,3 mm 11 m/S 729 mmHg 77%
    11:00 +1°C° 1 mm 11 m/S 730 mmHg 76%
    12:00 0°C° 1 mm 12 m/S 730 mmHg 75%
    13:00 0°C° 1 mm 12 m/S 730 mmHg 75%
    14:00 0°C° 0,9 mm 12 m/S 731 mmHg 74%
    15:00 0°C° 0,9 mm 12 m/S 731 mmHg 73%
    16:00 0°C° 0,9 mm 12 m/S 731 mmHg 73%
    17:00 +1°C° 0,7 mm 11 m/S 732 mmHg 72%
    18:00 +1°C° 0,7 mm 10 m/S 733 mmHg 72%
    19:00 +1°C° 0,7 mm 9 m/S 733 mmHg 72%
    20:00 +1°C° 0,5 mm 9 m/S 734 mmHg 73%
    21:00 +1°C° 0,5 mm 9 m/S 734 mmHg 73%
    22:00 +1°C° 0,5 mm 8 m/S 735 mmHg 74%
    23:00 +1°C° 0,4 mm 8 m/S 735 mmHg 74%

    15 Dezember, Freitag

    Zeit Temperatur Niederschläge Wind Luftdruck Luftfeuchtigkeit
    00:00 +2°C° 0,4 mm 7 m/S 735 mmHg 75%
    01:00 +2°C° 0,4 mm 7 m/S 736 mmHg 75%
    02:00 +2°C° 0,2 mm 6 m/S 736 mmHg 75%
    03:00 +2°C° 0,2 mm 6 m/S 737 mmHg 76%
    04:00 +2°C° 0,2 mm 5 m/S 737 mmHg 76%
    05:00 +2°C° 0,1 mm 5 m/S 738 mmHg 77%
    06:00 +1°C° 0,1 mm 5 m/S 738 mmHg 78%
    07:00 +1°C° 0,1 mm 5 m/S 739 mmHg 79%
    08:00 +1°C° 0 mm 4 m/S 739 mmHg 79%
    09:00 +1°C° 0 mm 4 m/S 740 mmHg 79%
    10:00 +1°C° 0 mm 4 m/S 740 mmHg 79%
    11:00 +2°C° 0 mm 3 m/S 741 mmHg 78%
    12:00 +3°C° 0 mm 3 m/S 741 mmHg 78%
    13:00 +3°C° 0 mm 3 m/S 741 mmHg 77%
    14:00 +2°C° 0 mm 3 m/S 742 mmHg 79%
    15:00 +3°C° 0 mm 2 m/S 742 mmHg 80%
    16:00 +2°C° 0 mm 2 m/S 742 mmHg 82%
    17:00 +1°C° 0 mm 3 m/S 743 mmHg 82%
    18:00 +1°C° 0 mm 3 m/S 743 mmHg 83%
    19:00 0°C° 0 mm 4 m/S 743 mmHg 84%
    20:00 0°C° 0 mm 4 m/S 744 mmHg 83%
    21:00 0°C° 0 mm 4 m/S 744 mmHg 82%
    22:00 0°C° 0 mm 5 m/S 744 mmHg 81%
    23:00 0°C° 0 mm 5 m/S 744 mmHg 79%

    16 Dezember, Samstag

    Zeit Temperatur Niederschläge Wind Luftdruck Luftfeuchtigkeit
    00:00 0°C° 0 mm 5 m/S 744 mmHg 78%
    01:00 0°C° 0 mm 4 m/S 745 mmHg 76%
    02:00 0°C° 0 mm 4 m/S 745 mmHg 76%
    03:00 +1°C° 0 mm 3 m/S 745 mmHg 77%
    04:00 +1°C° 0 mm 3 m/S 745 mmHg 77%
    05:00 0°C° 0 mm 3 m/S 745 mmHg 77%
    06:00 +1°C° 0 mm 2 m/S 746 mmHg 76%
    07:00 +1°C° 0 mm 2 m/S 746 mmHg 76%
    08:00 +1°C° 0 mm 2 m/S 746 mmHg 75%
    09:00 +1°C° 0 mm 2 m/S 747 mmHg 75%
    10:00 +1°C° 0 mm 2 m/S 747 mmHg 74%
    11:00 +1°C° 0 mm 3 m/S 747 mmHg 72%
    12:00 +1°C° 0 mm 3 m/S 748 mmHg 70%
    13:00 +2°C° 0 mm 3 m/S 748 mmHg 68%
    14:00 +1°C° 0 mm 3 m/S 748 mmHg 69%
    15:00 +1°C° 0 mm 3 m/S 748 mmHg 70%
    16:00 0°C° 0 mm 3 m/S 749 mmHg 71%
    17:00 0°C° 0 mm 3 m/S 749 mmHg 72%
    18:00 0°C° 0 mm 3 m/S 749 mmHg 72%
    19:00 0°C° 0 mm 3 m/S 749 mmHg 73%
    20:00 0°C° 0 mm 3 m/S 750 mmHg 73%
    21:00 0°C° 0 mm 3 m/S 750 mmHg 73%
    22:00 +1°C° 0 mm 2 m/S 750 mmHg 73%
    23:00 +1°C° 0 mm 2 m/S 750 mmHg 73%

    17 Dezember, Sonntag

    Zeit Temperatur Niederschläge Wind Luftdruck Luftfeuchtigkeit
    00:00 +1°C° 0 mm 2 m/S 751 mmHg 72%
    01:00 +1°C° 0 mm 2 m/S 751 mmHg 72%
    02:00 +1°C° 0 mm 2 m/S 751 mmHg 72%
    03:00 +1°C° 0 mm 2 m/S 751 mmHg 72%
    04:00 -1°C° 0 mm 2 m/S 752 mmHg 72%
    05:00 +1°C° 0 mm 2 m/S 752 mmHg 72%
    06:00 0°C° 0 mm 3 m/S 752 mmHg 71%
    07:00 0°C° 0 mm 3 m/S 753 mmHg 71%
    08:00 0°C° 0 mm 3 m/S 753 mmHg 71%
    09:00 +1°C° 0 mm 2 m/S 753 mmHg 71%
    10:00 +1°C° 0 mm 2 m/S 754 mmHg 71%
    11:00 +1°C° 0 mm 2 m/S 754 mmHg 70%
    12:00 +2°C° 0 mm 2 m/S 754 mmHg 70%
    13:00 +2°C° 0 mm 2 m/S 754 mmHg 69%
    14:00 +2°C° 0 mm 2 m/S 755 mmHg 70%
    15:00 +1°C° 0 mm 2 m/S 755 mmHg 72%
    16:00 -1°C° 0 mm 2 m/S 755 mmHg 74%
    17:00 -1°C° 0 mm 2 m/S 756 mmHg 74%
    18:00 +1°C° 0 mm 1 m/S 756 mmHg 75%
    19:00 +1°C° 0 mm 1 m/S 757 mmHg 75%
    20:00 +1°C° 0 mm 1 m/S 757 mmHg 75%
    21:00 +1°C° 0 mm 1 m/S 758 mmHg 75%
    22:00 +1°C° 0 mm 1 m/S 758 mmHg 75%
    23:00 +1°C° 0 mm 1 m/S 758 mmHg 76%
    Mehr zeigen